If you wish to contribute or participate in the discussions about articles you are invited to join SKYbrary as a registered user

 Actions

Fukue Airport

From SKYbrary Wiki

RJFE
Airport
ICAO: RJFE – IATA: FUJ
Summary
Name Fukue Airport
Region Asia and Pacific
Territory Japan JP.gif
Location Goto, Nagasaki Prefecture
Serving Fukue
Elevation 76.505 m
251 ft76.505 m
Coordinates 32° 40' 5.77" N, 128° 50' 14.64" E
Runways
Designator Length Width Surface ROPS
3/21 2000 m6,561.68 ft
46 m150.919 ft
ASP yes/yes


METAR
Observation RJFE 250900Z 22011KT 190V260 9000 -SHRA FEW008 SCT010 BKN015 18/17 Q1013
Station Fukue Airport
Date/Time 25 February 2020 09:00:00
Wind direction 220°
Wind speed 11 kts
Lowest cloud amount few clouds
Temperature 18°C
Dew point 17°C
Humidity 93%
QNH 1013 hPa
Weather condition n/a

WX
Tag(s) Tropical Revolving Storm

Fukue Airport, is an airport located 1.7nm3,148.4 m
3.148 km
10,329.396 ft
southwest of Gotō, Nagasaki Prefecture, off the western coast of Kyūshū, Japan. The airport also serves the city of Fukue. It is also known as Gotō-Fukue Airport.

Climatology

Humid Sub-tropical climate (Köppen climate classification Cfa)

Maps

Terrain

Loading map...

Airport Layout

Loading map...


Accidents & Serious Incidents at or in vicinity of RJFE

None on SKYbrary